SCP
0 0 0 0 0 0 0 0 0 0 0 0 0 0 0 0 0 0 0 0 0 0 0 0 0 0 0 0 0 0 0 0 0 0 0 0 0 0 0 0 0 0 0 0 0 0 0 0 0 0 0 0 0 0
0 0 0 0 0 0 0 0 0 0 0 0 0 0 0 0 0 0 0 0 0 0 0 0 0 0 0 0 0 0 0 0 0 0 0 0 0 0 0 0 0 0 0 0 0 0 0 0 0 0 0 0 0 0
0 0 0 0 0 0 0 0 0 0 0 0 0 0 0 0 0 0 0 0 0 0 0 0 0 0 0 0 0 0 0 0 0 0 0 0 0 0 0 0 0 0 0 0 0 0 0 0 0 0 0 0 0 0
0 0 0 0 0 0 0 0 0 0 0 0 0 0 0 0 0 0 0 0 0 0 0 0 0 0 0 0 0 0 0 0 0 0 0 0 0 0 0 0 0 0 0 0 0 0 0 0 0 0 0 0 0 0
0 0 0 0 0 0 0 0 0 0 0 0 0 0 0 0 0 0 0 0 0 0 0 0 0 0 0 0 0 0 0 0 0 0 0 0 0 0 0 0 0 0 0 0 0 0 0 0 0 0 0 0 0 0
0 0 0 0 0 0 0 0 0 0 0 0 0 0 0 0 0 0 0 0 0 0 0 0 0 0 0 0 0 0 0 0 0 0 0 0 0 0 0 0 0 0 0 0 0 0 0 0 0 0 0 0 0 0
0 0 0 0 0 0 0 0 0 0 0 0 0 0 0 0 0 0 0 0 0 0 0 0 0 0 0 0 0 0 0 0 0 0 0 0 0 0 0 0 0 0 0 0 0 0 0 0 0 0 0 0 0 0
0 0 0 0 0 0 0 0 0 0 0 0 0 0 0 0 0 0 0 0 0 0 0 0 0 0 0 0 0 0 0 0 0 0 0 0 0 0 0 0 0 0 0 0 0 0 0 0 0 0 0 0 0 0
0 0 0 0 0 0 0 0 0 0 0 0 0 0 0 0 0 0 0 0 0 0 0 0 0 0 0 0 0 0 0 0 0 0 0 0 0 0 0 0 0 0 0 0 0 0 0 0 0 0 0 0 0 0
0 0 0 0 0 0 0 0 0 0 0 0 0 0 0 0 0 0 0 0 0 0 0 0 0 0 0 0 0 0 0 0 0 0 0 0 0 0 0 0 0 0 0 0 0 0 0 0 0 0 0 0 0 0
0 0 0 0 0 0 0 0 0 0 0 0 0 0 0 0 0 0 0 0 0 0 0 0 0 0 0 0 0 0 0 0 0 0 0 0 0 0 0 0 0 0 0 0 0 0 0 0 0 0 0 0 0 0
0 0 0 0 0 0 0 0 0 0 0 0 0 0 0 0 0 0 0 0 0 0 0 0 0 0 0 0 0 0 0 0 0 0 0 0 0 0 0 0 0 0 0 0 0 0 0 0 0 0 0 0 0 0
0 0 0 0 0 0 0 0 0 0 0 0 0 0 0 0 0 0 0 0 0 0 0 0 0 0 0 0 0 0 0 0 0 0 0 0 0 0 0 0 0 0 0 0 0 0 0 0 0 0 0 0 0 0
0 0 0 0 0 0 0 0 0 0 0 0 0 0 0 0 0 0 0 0 0 0 0 0 0 0 0 0 0 0 0 0 0 0 0 0 0 0 0 0 0 0 0 0 0 0 0 0 0 0 0 0 0 0
0 0 0 0 0 0 0 0 0 0 0 0 0 0 0 0 0 0 0 0 0 0 0 0 0 0 0 0 0 0 0 0 0 0 0 0 0 0 0 0 0 0 0 0 0 0 0 0 0 0 0 0 0 0
0 0 0 0 0 0 0 0 0 0 0 0 0 0 0 0 0 0 0 0 0 0 0 0 0 0 0 0 0 0 0 0 0 0 0 0 0 0 0 0 0 0 0 0 0 0 0 0 0 0 0 0 0 0
0 0 0 0 0 0 0 0 0 0 0 0 0 0 0 0 0 0 0 0 0 0 0 0 0 0 0 0 0 0 0 0 0 0 0 0 0 0 0 0 0 0 0 0 0 0 0 0 0 0 0 0 0 0
0 0 0 0 0 0 0 0 0 0 0 0 0 0 0 0 0 0 0 0 0 0 0 0 0 0 0 0 0 0 0 0 0 0 0 0 0 0 0 0 0 0 0 0 0 0 0 0 0 0 0 0 0 0
0 0 0 0 0 0 0 0 0 0 0 0 0 0 0 0 0 0 0 0 0 0 0 0 0 0 0 0 0 0 0 0 0 0 0 0 0 0 0 0 0 0 0 0 0 0 0 0 0 0 0 0 0 0
0 0 0 0 0 0 0 0 0 0 0 0 0 0 0 0 0 0 0 0 0 0 0 0 0 0 0 0 0 0 0 0 0 0 0 0 0 0 0 0 0 0 0 0 0 0 0 0 0 0 0 0 0 0
0 0 0 0 0 0 0 0 0 0 0 0 0 0 0 0 0 0 0 0 0 0 0 0 0 0 0 0 0 0 0 0 0 0 0 0 0 0 0 0 0 0 0 0 0 0 0 0 0 0 0 0 0 0
0 0 0 0 0 0 0 0 0 0 0 0 0 0 0 0 0 0 0 0 0 0 0 0 0 0 0 0 0 0 0 0 0 0 0 0 0 0 0 0 0 0 0 0 0 0 0 0 0 0 0 0 0 0
0 0 0 0 0 0 0 0 0 0 0 0 0 0 0 0 0 0 0 0 0 0 0 0 0 0 0 0 0 0 0 0 0 0 0 0 0 0 0 0 0 0 0 0 0 0 0 0 0 0 0 0 0 0
0 0 0 0 0 0 0 0 0 0 0 0 0 0 0 0 0 0 0 0 0 0 0 0 0 0 0 0 0 0 0 0 0 0 0 0 0 0 0 0 0 0 0 0 0 0 0 0 0 0 0 0 0 0
0 0 0 0 0 0 0 0 0 0 0 0 0 0 0 0 0 0 0 0 0 0 0 0 0 0 0 0 0 0 0 0 0 0 0 0 0 0 0 0 0 0 0 0 0 0 0 0 0 0 0 0 0 0
0 0 0 0 0 0 0 0 0 0 0 0 0 0 0 0 0 0 0 0 0 0 0 0 0 0 0 0 -0 0 0 0 0 0 0 0 0 0 0 0 0 0 0 0 0 0 0 0 0 0 0 0 0 0
0 0 0 0 0 0 0 0 0 0 0 0 0 0 0 0 0 0 0 0 0 0 0 0 0 -0 -0 0 0 0 0 0 0 0 0 0 0 0 0 0 0 0 0 0 0 0 0 0 0 0 0 0 0 0
0 0 0 0 0 0 0 0 0 0 0 0 0 0 0 0 0 0 0 0 0 0 0 0 0 0 0 0 0 0 0 0 0 0 0 0 0 0 0 0 0 0 0 0 0 0 0 0 0 0 0 0 0 0
0 0 0 0 0 0 0 0 0 0 0 0 0 0 0 0 0 0 0 0 0 0 0 0 0 0 0 0 0 0 0 0 0 0 0 0 0 0 0 0 0 0 0 0 0 0 0 0 0 0 0 0 0 0
0 0 0 0 0 0 0 0 0 0 0 0 0 0 0 0 0 0 0 0 0 0 0 0 0 0 0 0 0 0 0 0 0 0 0 0 0 0 0 0 0 0 0 0 0 0 0 0 0 0 0 0 0 0
0 0 0 0 0 0 0 0 0 0 0 0 0 0 0 0 0 0 0 0 0 0 0 0 0 0 0 0 0 0 0 0 0 0 0 0 0 0 0 0 0 0 0 0 0 0 0 0 0 0 0 0 0 0
0 0 0 0 0 0 0 0 0 0 0 0 0 0 0 0 0 0 0 0 0 0 0 0 0 0 0 0 0 0 0 0 0 0 0 0 0 0 0 0 0 0 0 0 0 0 0 0 0 0 0 0 0 0
0 0 0 0 0 0 0 0 0 0 0 0 0 0 0 0 0 0 0 0 0 0 0 0 0 0 0 0 0 0 0 0 0 0 0 0 0 0 0 0 0 0 0 0 0 0 0 0 0 0 0 0 0 0
Wind_Speed_500mb
25 27 29 30 28 28 29 29 27 23 21 25 23 18 14 20 21 15 11 12 9 6 13 20 23 22 20 20 10 16 9 7 5 5 7 7 6 8 4 8 11 16 12 8 5 6 21 18 9 15 9 25 23 39
21 23 24 26 29 29 28 30 25 24 25 20 22 24 25 20 21 18 10 13 19 11 12 20 30 33 34 27 23 33 5 12 20 6 3 5 3 1 7 7 2 7 15 9 21 16 14 29 13 21 28 24 35 49
28 28 27 27 28 29 31 34 29 26 27 28 27 27 28 27 25 25 17 19 25 13 21 21 23 24 37 44 36 20 16 13 13 11 13 5 5 7 8 12 7 9 21 9 4 13 36 47 49 54 27 34 44 47
36 37 37 36 35 33 32 31 31 31 34 28 30 32 32 31 29 30 31 24 18 10 9 8 18 20 19 26 43 40 30 25 19 19 7 5 5 16 6 9 9 13 11 9 19 35 44 39 14 26 32 36 41 52
43 43 42 40 39 38 37 34 33 33 30 35 32 32 32 35 33 29 31 24 18 14 8 18 31 35 36 27 26 42 37 24 18 7 4 5 7 5 6 5 12 29 15 11 16 26 29 25 30 23 27 33 44 54
48 48 47 43 40 37 36 36 36 34 35 35 36 34 36 34 34 28 11 16 22 21 8 6 9 11 10 16 27 35 32 27 18 11 9 13 13 14 5 8 18 33 58 62 36 23 26 43 36 26 29 39 49 51
41 41 41 39 40 38 34 33 33 34 34 34 35 39 41 42 38 26 11 6 11 11 7 14 10 4 15 20 23 29 28 21 22 13 15 12 18 20 5 11 8 23 34 49 49 37 38 31 17 26 34 46 47 45
33 32 31 30 31 31 31 30 29 28 28 28 33 37 37 43 45 42 34 25 17 13 9 6 9 7 25 13 13 20 15 19 16 12 7 10 10 19 13 38 46 55 34 39 49 46 38 26 25 33 40 40 41 43
31 31 29 27 27 27 27 26 23 22 21 24 31 33 32 48 36 44 28 27 32 24 9 13 6 8 25 14 11 15 16 3 11 13 11 17 7 17 32 38 53 52 31 23 21 28 32 31 33 34 35 36 36 38
34 31 29 28 25 22 20 20 21 19 19 21 23 15 16 17 33 20 27 17 24 24 25 14 21 7 28 19 11 14 10 6 6 11 14 8 12 51 50 72 76 66 52 38 43 38 38 36 33 29 31 28 30 36
34 35 36 34 30 28 27 23 21 22 23 18 12 15 9 20 34 22 17 19 19 10 16 21 55 16 25 9 7 17 8 7 5 8 9 7 10 15 37 52 52 55 53 47 44 43 37 32 27 29 28 25 26 36
45 44 42 37 35 35 31 29 25 31 26 16 11 14 17 20 11 14 10 10 11 11 9 10 18 44 19 14 9 16 7 9 11 18 4 9 9 40 38 37 32 29 31 40 49 44 32 27 25 23 19 22 27 32
50 50 49 45 42 40 37 31 33 33 36 33 14 12 10 14 15 13 16 8 8 13 22 22 10 33 14 15 7 7 11 10 13 5 9 11 21 30 28 31 35 34 35 41 45 37 27 24 23 19 20 19 24 23
52 54 55 52 50 47 41 39 37 37 35 20 18 12 13 12 12 16 12 8 21 23 40 48 19 16 15 11 10 8 8 7 5 8 14 8 56 51 32 30 33 38 40 39 35 29 25 26 22 19 17 19 21 25
54 56 59 59 55 51 48 47 46 52 39 26 19 14 18 32 32 20 34 20 26 28 49 31 8 15 7 7 8 7 11 11 14 12 8 27 29 33 34 40 46 45 43 39 35 28 25 25 24 19 19 17 17 22
55 60 66 63 59 56 53 49 51 61 23 22 23 15 10 21 39 39 32 20 22 37 45 12 9 8 11 8 12 15 10 18 12 9 28 32 40 42 30 44 51 51 44 37 33 26 26 25 23 19 21 18 20 23
57 75 71 64 58 59 55 54 53 33 23 19 26 55 48 46 41 42 41 37 45 51 9 8 8 15 5 7 9 10 13 8 15 23 13 45 48 31 31 38 52 50 44 37 32 28 27 22 19 22 22 22 23 22
77 70 62 56 52 50 58 64 32 24 24 27 20 60 66 64 57 29 31 39 42 34 22 11 10 10 13 10 10 11 44 55 46 45 54 47 40 36 36 40 48 49 43 39 34 29 29 22 22 26 24 23 21 19
76 69 65 60 52 52 24 30 45 19 33 25 59 49 53 55 55 50 51 53 53 45 20 13 12 8 10 12 17 47 48 49 44 43 56 45 42 42 44 46 48 44 43 43 38 34 28 21 23 24 24 23 20 18
68 68 69 64 55 42 19 19 29 24 24 31 41 44 50 51 48 52 56 60 62 36 24 14 22 48 51 74 70 71 68 78 50 46 73 47 42 42 46 54 52 46 43 39 35 31 26 24 27 25 25 23 19 19
63 70 61 64 69 70 23 21 20 14 18 26 45 46 22 32 48 51 55 62 44 24 20 54 68 86 89 82 84 77 68 60 49 52 50 47 46 51 53 57 51 46 44 43 40 35 31 28 27 27 28 26 23 20
68 60 58 65 41 26 32 31 15 18 19 9 20 36 14 17 25 40 38 35 34 75 80 81 87 88 76 73 83 78 83 74 61 56 56 57 59 44 47 59 58 52 50 48 42 36 32 31 29 30 29 26 20 17
61 64 41 35 19 32 13 39 17 21 9 12 23 11 7 11 18 27 15 29 51 74 75 77 94 86 73 74 72 77 77 70 72 78 66 50 58 52 44 51 56 53 52 48 41 34 31 28 31 30 27 23 20 17
65 39 24 29 19 10 22 14 15 18 17 8 9 9 8 13 28 14 11 24 64 51 52 77 85 79 72 69 76 77 73 67 68 62 44 53 63 52 49 50 46 46 46 38 36 35 33 34 32 30 26 23 20 19
17 15 19 11 13 10 8 10 10 8 7 7 10 6 8 18 8 9 10 17 44 55 60 69 70 69 69 69 65 63 59 59 59 63 67 59 58 58 52 47 41 39 42 41 38 35 36 37 35 30 27 26 23 23
8 12 14 8 11 11 13 12 14 11 8 9 12 13 13 7 9 13 7 15 27 37 48 50 49 61 61 64 60 57 59 52 45 49 52 49 56 63 57 52 47 46 44 38 32 34 38 38 36 32 31 28 27 26
9 10 16 17 19 18 9 7 17 7 11 11 10 10 8 9 13 9 10 13 16 13 13 27 34 36 48 56 51 52 57 54 46 38 28 34 37 44 49 45 40 37 37 40 35 36 39 38 36 35 34 33 30 28
8 20 17 28 13 14 9 8 10 14 9 17 22 12 18 17 10 5 7 9 10 14 22 23 24 27 25 21 22 23 19 24 26 25 25 23 24 32 30 27 26 24 24 28 28 35 38 35 33 32 31 30 29 23
6 17 30 6 8 6 9 9 11 14 15 24 11 8 9 10 8 8 8 12 18 19 20 17 14 15 15 12 9 9 9 12 20 21 24 25 27 29 31 31 31 26 25 27 30 33 35 34 33 30 30 27 21 22
9 16 10 6 7 4 2 3 7 14 13 15 13 9 9 9 12 12 14 16 13 11 10 9 8 8 4 1 6 8 11 14 14 16 22 26 27 27 30 31 27 27 27 31 33 33 33 34 31 28 26 24 24 22
15 9 9 8 5 3 6 10 13 15 13 9 10 9 10 7 5 9 9 10 5 3 1 3 3 3 4 6 6 9 12 15 13 14 14 12 14 19 24 27 26 27 29 32 34 35 34 33 32 30 27 25 23 23
8 7 7 6 4 10 13 6 5 4 4 5 4 7 8 6 6 6 7 9 9 7 6 7 5 5 5 7 8 10 10 12 10 14 16 17 17 16 17 17 26 27 24 25 30 32 32 31 30 29 27 25 25 24
11 15 15 10 7 8 8 7 4 3 3 4 4 6 7 7 5 5 4 8 8 6 5 9 10 9 7 6 6 7 11 9 12 13 17 18 16 17 19 20 21 23 25 24 21 25 28 29 28 27 25 24 24 24
Wind_Direction_500mb
286 289 289 289 290 289 295 309 311 323 316 317 317 313 321 327 337 340 357 7 360 283 244 223 226 205 194 195 159 157 106 205 114 163 159 215 166 224 200 230 184 174 171 197 138 179 268 202 148 172 242 308 314 326
298 301 303 302 296 292 289 290 299 312 311 311 309 307 308 312 321 319 329 341 344 304 275 257 242 238 238 235 214 181 235 163 185 113 240 101 200 130 177 252 135 242 195 187 185 213 232 194 233 289 305 311 327 327
290 293 295 298 299 299 294 291 277 280 295 304 299 302 299 310 311 299 300 317 333 314 291 262 253 244 239 235 226 200 216 205 199 203 166 173 214 132 187 233 221 250 204 233 39 231 250 251 275 301 302 314 320 320
285 286 288 290 291 291 292 291 283 278 271 279 292 298 302 304 302 297 294 306 318 305 288 273 246 236 233 227 228 229 236 203 190 188 188 148 178 197 232 267 217 208 160 219 259 274 281 285 299 306 302 310 314 318
284 284 283 283 282 283 283 282 281 275 266 268 266 286 294 300 305 303 298 289 276 257 263 281 279 273 241 233 228 224 224 198 176 166 141 228 230 186 240 287 243 204 210 191 242 249 242 271 309 294 301 312 319 325
288 289 289 289 284 279 277 276 275 273 268 260 259 264 277 285 285 306 292 264 236 241 274 305 271 248 226 200 208 212 208 193 193 183 198 226 213 195 227 246 236 218 228 238 247 265 290 290 296 272 305 319 324 328
278 278 280 282 287 286 281 278 275 272 267 261 252 254 260 272 268 256 246 278 229 212 259 295 285 216 197 196 197 201 200 203 202 197 220 213 187 201 218 244 202 255 249 247 251 267 288 270 248 280 308 318 324 332
271 276 280 284 286 284 282 277 278 279 272 261 247 252 263 266 254 237 244 248 219 215 238 254 272 267 193 179 184 195 187 198 210 225 214 207 203 221 250 239 250 256 265 257 250 263 265 254 272 297 312 322 329 336
278 280 283 284 286 285 284 278 270 278 275 268 250 250 251 252 222 224 244 236 218 220 234 210 199 232 177 176 164 163 183 154 213 220 217 177 219 228 239 249 251 255 235 246 254 247 237 259 283 301 315 324 332 331
272 273 275 276 279 281 279 271 252 252 261 260 255 245 226 223 216 219 190 210 218 215 225 226 201 247 182 166 159 153 187 212 216 227 177 223 251 251 254 259 266 262 260 255 250 233 241 259 283 301 312 320 325 323
265 270 272 269 268 269 266 262 246 238 247 247 212 227 247 180 173 179 213 215 199 237 226 234 216 199 194 144 160 195 190 173 233 238 183 248 262 232 264 263 263 256 254 251 244 253 255 272 288 299 305 316 315 321
264 270 269 265 263 260 258 252 239 231 232 214 209 208 176 202 224 206 202 204 211 230 220 219 211 206 201 174 152 179 187 174 245 157 175 255 245 259 262 258 261 249 237 225 232 240 257 272 288 290 291 300 313 316
265 263 265 262 259 256 248 241 230 229 232 239 233 189 216 219 229 213 198 203 206 205 187 169 176 174 164 180 169 175 200 216 131 197 234 236 264 267 254 251 246 237 223 217 223 235 250 274 283 279 292 301 311 316
263 265 263 261 258 250 248 240 227 216 215 206 177 185 197 212 230 205 191 166 203 210 185 176 156 171 177 171 180 220 189 127 225 239 238 251 262 272 252 239 226 210 209 210 220 236 256 274 276 276 284 300 304 311
263 262 261 259 254 246 242 238 229 216 209 207 187 215 219 220 228 211 218 222 229 218 168 169 185 176 177 202 186 177 171 232 216 230 225 264 301 264 230 222 217 216 214 219 229 240 262 272 272 274 279 292 294 307
264 264 257 255 252 246 241 237 230 223 209 208 213 235 224 214 235 218 208 223 219 192 170 185 194 227 209 194 175 199 191 222 227 209 219 301 271 257 244 231 226 221 221 225 232 245 264 268 265 269 278 284 298 302
260 259 259 256 251 245 239 234 230 216 209 207 227 229 233 239 248 228 222 218 201 167 190 182 252 220 170 213 216 203 214 223 231 228 252 276 253 259 261 243 228 219 222 230 235 249 265 270 256 267 274 282 292 298
254 258 258 255 251 240 237 231 222 199 217 214 218 223 223 237 239 231 224 221 197 198 196 214 190 187 237 215 227 226 232 246 250 264 273 271 259 270 257 241 222 223 231 236 241 253 259 258 249 262 268 274 288 293
252 256 253 246 241 224 216 212 212 210 208 214 226 226 226 237 241 235 237 237 233 221 207 204 231 214 236 242 278 278 261 260 258 289 278 273 266 262 254 232 223 229 234 237 240 252 258 263 259 261 266 269 275 283
250 247 247 246 231 221 201 215 200 214 189 218 222 224 223 233 238 234 234 231 225 210 227 215 234 241 239 246 249 251 263 277 281 277 270 264 260 249 240 228 227 237 236 238 242 244 247 245 254 253 256 264 261 274
247 243 238 234 230 222 213 192 200 226 189 196 229 207 214 225 218 213 218 227 203 222 232 233 240 243 244 251 255 259 269 270 258 256 272 291 283 246 238 232 235 233 237 237 238 243 243 245 262 250 252 259 251 266
239 235 230 222 221 210 211 192 180 187 190 201 186 197 195 197 205 214 220 208 230 232 234 242 245 250 255 249 252 256 260 259 262 261 278 283 265 247 239 232 227 233 242 243 243 247 248 242 250 249 251 251 250 255
226 205 188 192 189 193 197 173 161 186 185 191 157 168 202 197 204 189 211 229 241 242 241 244 247 250 251 258 259 259 259 253 260 263 272 274 260 254 253 246 234 240 245 242 241 243 244 234 239 242 244 240 240 254
191 180 171 173 170 180 144 174 180 173 168 175 182 177 183 195 168 195 243 245 248 255 247 248 250 249 253 252 250 252 254 258 258 258 269 270 255 243 246 238 240 248 244 242 236 239 231 229 236 238 233 228 234 244
155 168 161 155 162 131 139 159 161 180 165 177 160 177 172 172 196 231 242 264 263 257 256 256 248 248 242 247 252 253 256 254 249 256 266 258 254 245 242 238 240 239 228 227 228 231 226 223 230 230 224 222 230 244
138 174 167 140 147 156 166 160 176 172 153 166 203 147 146 165 198 241 237 262 269 274 269 265 268 257 250 252 255 262 267 262 246 255 263 256 251 241 237 231 225 222 222 228 240 231 219 221 225 227 221 224 232 246
142 173 182 172 160 145 144 157 156 149 175 182 164 152 155 194 231 246 258 265 271 275 285 280 285 277 275 275 271 267 267 262 263 259 263 257 252 242 238 235 236 245 234 229 234 224 219 220 225 227 225 228 237 245
151 175 164 165 154 167 147 152 163 189 180 166 149 180 183 195 230 226 238 248 262 283 308 302 292 290 297 292 269 262 248 235 234 234 238 237 221 220 226 233 232 223 225 228 233 219 216 221 226 224 223 228 236 240
122 145 131 103 122 150 178 175 195 196 167 168 168 177 208 210 205 224 250 281 293 294 299 308 308 306 299 276 244 225 237 236 206 202 219 212 214 214 221 224 221 228 228 212 213 209 212 220 226 225 225 229 236 243
145 156 104 102 112 166 151 161 157 147 171 179 182 163 178 200 211 236 264 277 279 280 287 278 260 287 299 309 147 162 183 202 218 231 230 232 238 237 226 216 227 228 214 210 209 205 208 224 233 223 227 235 238 241
126 101 78 74 104 87 129 129 138 143 147 166 182 192 183 184 225 246 242 250 247 252 278 126 135 153 154 157 178 197 200 208 215 221 222 225 223 228 225 244 236 212 211 210 210 216 225 221 217 223 232 235 239 243
76 94 116 111 119 146 129 127 122 131 144 173 158 162 161 179 225 237 234 220 210 208 195 197 196 200 196 205 215 221 220 222 225 231 237 241 244 219 208 206 202 207 210 218 220 212 213 220 227 231 235 241 244 248
89 91 98 108 136 162 165 150 137 128 161 160 163 173 181 203 215 232 226 216 218 210 192 201 210 215 224 222 228 242 231 233 220 228 223 217 206 205 211 211 208 210 213 224 229 221 223 227 232 236 239 242 246 250
Wind_Speed_850mb
25 27 29 30 28 28 29 29 27 23 21 25 23 18 14 20 21 15 11 12 9 6 13 20 23 22 20 20 10 16 9 7 5 5 7 7 6 8 4 8 11 16 12 8 5 6 21 18 9 15 9 25 23 39
21 23 24 26 29 29 28 30 25 24 25 20 22 24 25 20 21 18 10 13 19 11 12 20 30 33 34 27 23 33 5 12 20 6 3 5 3 1 7 7 2 7 15 9 21 16 14 29 13 21 28 24 35 49
28 28 27 27 28 29 31 34 29 26 27 28 27 27 28 27 25 25 17 19 25 13 21 21 23 24 37 44 36 20 16 13 13 11 13 5 5 7 8 12 7 9 21 9 4 13 36 47 49 54 27 34 44 47
36 37 37 36 35 33 32 31 31 31 34 28 30 32 32 31 29 30 31 24 18 10 9 8 18 20 19 26 43 40 30 25 19 19 7 5 5 16 6 9 9 13 11 9 19 35 44 39 14 26 32 36 41 52
43 43 42 40 39 38 37 34 33 33 30 35 32 32 32 35 33 29 31 24 18 14 8 18 31 35 36 27 26 42 37 24 18 7 4 5 7 5 6 5 12 29 15 11 16 26 29 25 30 23 27 33 44 54
48 48 47 43 40 37 36 36 36 34 35 35 36 34 36 34 34 28 11 16 22 21 8 6 9 11 10 16 27 35 32 27 18 11 9 13 13 14 5 8 18 33 58 62 36 23 26 43 36 26 29 39 49 51
41 41 41 39 40 38 34 33 33 34 34 34 35 39 41 42 38 26 11 6 11 11 7 14 10 4 15 20 23 29 28 21 22 13 15 12 18 20 5 11 8 23 34 49 49 37 38 31 17 26 34 46 47 45
33 32 31 30 31 31 31 30 29 28 28 28 33 37 37 43 45 42 34 25 17 13 9 6 9 7 25 13 13 20 15 19 16 12 7 10 10 19 13 38 46 55 34 39 49 46 38 26 25 33 40 40 41 43
31 31 29 27 27 27 27 26 23 22 21 24 31 33 32 48 36 44 28 27 32 24 9 13 6 8 25 14 11 15 16 3 11 13 11 17 7 17 32 38 53 52 31 23 21 28 32 31 33 34 35 36 36 38
34 31 29 28 25 22 20 20 21 19 19 21 23 15 16 17 33 20 27 17 24 24 25 14 21 7 28 19 11 14 10 6 6 11 14 8 12 51 50 72 76 66 52 38 43 38 38 36 33 29 31 28 30 36
34 35 36 34 30 28 27 23 21 22 23 18 12 15 9 20 34 22 17 19 19 10 16 21 55 16 25 9 7 17 8 7 5 8 9 7 10 15 37 52 52 55 53 47 44 43 37 32 27 29 28 25 26 36
45 44 42 37 35 35 31 29 25 31 26 16 11 14 17 20 11 14 10 10 11 11 9 10 18 44 19 14 9 16 7 9 11 18 4 9 9 40 38 37 32 29 31 40 49 44 32 27 25 23 19 22 27 32
50 50 49 45 42 40 37 31 33 33 36 33 14 12 10 14 15 13 16 8 8 13 22 22 10 33 14 15 7 7 11 10 13 5 9 11 21 30 28 31 35 34 35 41 45 37 27 24 23 19 20 19 24 23
52 54 55 52 50 47 41 39 37 37 35 20 18 12 13 12 12 16 12 8 21 23 40 48 19 16 15 11 10 8 8 7 5 8 14 8 56 51 32 30 33 38 40 39 35 29 25 26 22 19 17 19 21 25
54 56 59 59 55 51 48 47 46 52 39 26 19 14 18 32 32 20 34 20 26 28 49 31 8 15 7 7 8 7 11 11 14 12 8 27 29 33 34 40 46 45 43 39 35 28 25 25 24 19 19 17 17 22
55 60 66 63 59 56 53 49 51 61 23 22 23 15 10 21 39 39 32 20 22 37 45 12 9 8 11 8 12 15 10 18 12 9 28 32 40 42 30 44 51 51 44 37 33 26 26 25 23 19 21 18 20 23
57 75 71 64 58 59 55 54 53 33 23 19 26 55 48 46 41 42 41 37 45 51 9 8 8 15 5 7 9 10 13 8 15 23 13 45 48 31 31 38 52 50 44 37 32 28 27 22 19 22 22 22 23 22
77 70 62 56 52 50 58 64 32 24 24 27 20 60 66 64 57 29 31 39 42 34 22 11 10 10 13 10 10 11 44 55 46 45 54 47 40 36 36 40 48 49 43 39 34 29 29 22 22 26 24 23 21 19
76 69 65 60 52 52 24 30 45 19 33 25 59 49 53 55 55 50 51 53 53 45 20 13 12 8 10 12 17 47 48 49 44 43 56 45 42 42 44 46 48 44 43 43 38 34 28 21 23 24 24 23 20 18
68 68 69 64 55 42 19 19 29 24 24 31 41 44 50 51 48 52 56 60 62 36 24 14 22 48 51 74 70 71 68 78 50 46 73 47 42 42 46 54 52 46 43 39 35 31 26 24 27 25 25 23 19 19
63 70 61 64 69 70 23 21 20 14 18 26 45 46 22 32 48 51 55 62 44 24 20 54 68 86 89 82 84 77 68 60 49 52 50 47 46 51 53 57 51 46 44 43 40 35 31 28 27 27 28 26 23 20
68 60 58 65 41 26 32 31 15 18 19 9 20 36 14 17 25 40 38 35 34 75 80 81 87 88 76 73 83 78 83 74 61 56 56 57 59 44 47 59 58 52 50 48 42 36 32 31 29 30 29 26 20 17
61 64 41 35 19 32 13 39 17 21 9 12 23 11 7 11 18 27 15 29 51 74 75 77 94 86 73 74 72 77 77 70 72 78 66 50 58 52 44 51 56 53 52 48 41 34 31 28 31 30 27 23 20 17
65 39 24 29 19 10 22 14 15 18 17 8 9 9 8 13 28 14 11 24 64 51 52 77 85 79 72 69 76 77 73 67 68 62 44 53 63 52 49 50 46 46 46 38 36 35 33 34 32 30 26 23 20 19
17 15 19 11 13 10 8 10 10 8 7 7 10 6 8 18 8 9 10 17 44 55 60 69 70 69 69 69 65 63 59 59 59 63 67 59 58 58 52 47 41 39 42 41 38 35 36 37 35 30 27 26 23 23
8 12 14 8 11 11 13 12 14 11 8 9 12 13 13 7 9 13 7 15 27 37 48 50 49 61 61 64 60 57 59 52 45 49 52 49 56 63 57 52 47 46 44 38 32 34 38 38 36 32 31 28 27 26
9 10 16 17 19 18 9 7 17 7 11 11 10 10 8 9 13 9 10 13 16 13 13 27 34 36 48 56 51 52 57 54 46 38 28 34 37 44 49 45 40 37 37 40 35 36 39 38 36 35 34 33 30 28
8 20 17 28 13 14 9 8 10 14 9 17 22 12 18 17 10 5 7 9 10 14 22 23 24 27 25 21 22 23 19 24 26 25 25 23 24 32 30 27 26 24 24 28 28 35 38 35 33 32 31 30 29 23
6 17 30 6 8 6 9 9 11 14 15 24 11 8 9 10 8 8 8 12 18 19 20 17 14 15 15 12 9 9 9 12 20 21 24 25 27 29 31 31 31 26 25 27 30 33 35 34 33 30 30 27 21 22
9 16 10 6 7 4 2 3 7 14 13 15 13 9 9 9 12 12 14 16 13 11 10 9 8 8 4 1 6 8 11 14 14 16 22 26 27 27 30 31 27 27 27 31 33 33 33 34 31 28 26 24 24 22
15 9 9 8 5 3 6 10 13 15 13 9 10 9 10 7 5 9 9 10 5 3 1 3 3 3 4 6 6 9 12 15 13 14 14 12 14 19 24 27 26 27 29 32 34 35 34 33 32 30 27 25 23 23
8 7 7 6 4 10 13 6 5 4 4 5 4 7 8 6 6 6 7 9 9 7 6 7 5 5 5 7 8 10 10 12 10 14 16 17 17 16 17 17 26 27 24 25 30 32 32 31 30 29 27 25 25 24
11 15 15 10 7 8 8 7 4 3 3 4 4 6 7 7 5 5 4 8 8 6 5 9 10 9 7 6 6 7 11 9 12 13 17 18 16 17 19 20 21 23 25 24 21 25 28 29 28 27 25 24 24 24
Wind_Direction_850mb
286 289 289 289 290 289 295 309 311 323 316 317 317 313 321 327 337 340 357 7 360 283 244 223 226 205 194 195 159 157 106 205 114 163 159 215 166 224 200 230 184 174 171 197 138 179 268 202 148 172 242 308 314 326
298 301 303 302 296 292 289 290 299 312 311 311 309 307 308 312 321 319 329 341 344 304 275 257 242 238 238 235 214 181 235 163 185 113 240 101 200 130 177 252 135 242 195 187 185 213 232 194 233 289 305 311 327 327
290 293 295 298 299 299 294 291 277 280 295 304 299 302 299 310 311 299 300 317 333 314 291 262 253 244 239 235 226 200 216 205 199 203 166 173 214 132 187 233 221 250 204 233 39 231 250 251 275 301 302 314 320 320
285 286 288 290 291 291 292 291 283 278 271 279 292 298 302 304 302 297 294 306 318 305 288 273 246 236 233 227 228 229 236 203 190 188 188 148 178 197 232 267 217 208 160 219 259 274 281 285 299 306 302 310 314 318
284 284 283 283 282 283 283 282 281 275 266 268 266 286 294 300 305 303 298 289 276 257 263 281 279 273 241 233 228 224 224 198 176 166 141 228 230 186 240 287 243 204 210 191 242 249 242 271 309 294 301 312 319 325
288 289 289 289 284 279 277 276 275 273 268 260 259 264 277 285 285 306 292 264 236 241 274 305 271 248 226 200 208 212 208 193 193 183 198 226 213 195 227 246 236 218 228 238 247 265 290 290 296 272 305 319 324 328
278 278 280 282 287 286 281 278 275 272 267 261 252 254 260 272 268 256 246 278 229 212 259 295 285 216 197 196 197 201 200 203 202 197 220 213 187 201 218 244 202 255 249 247 251 267 288 270 248 280 308 318 324 332
271 276 280 284 286 284 282 277 278 279 272 261 247 252 263 266 254 237 244 248 219 215 238 254 272 267 193 179 184 195 187 198 210 225 214 207 203 221 250 239 250 256 265 257 250 263 265 254 272 297 312 322 329 336
278 280 283 284 286 285 284 278 270 278 275 268 250 250 251 252 222 224 244 236 218 220 234 210 199 232 177 176 164 163 183 154 213 220 217 177 219 228 239 249 251 255 235 246 254 247 237 259 283 301 315 324 332 331
272 273 275 276 279 281 279 271 252 252 261 260 255 245 226 223 216 219 190 210 218 215 225 226 201 247 182 166 159 153 187 212 216 227 177 223 251 251 254 259 266 262 260 255 250 233 241 259 283 301 312 320 325 323
265 270 272 269 268 269 266 262 246 238 247 247 212 227 247 180 173 179 213 215 199 237 226 234 216 199 194 144 160 195 190 173 233 238 183 248 262 232 264 263 263 256 254 251 244 253 255 272 288 299 305 316 315 321
264 270 269 265 263 260 258 252 239 231 232 214 209 208 176 202 224 206 202 204 211 230 220 219 211 206 201 174 152 179 187 174 245 157 175 255 245 259 262 258 261 249 237 225 232 240 257 272 288 290 291 300 313 316
265 263 265 262 259 256 248 241 230 229 232 239 233 189 216 219 229 213 198 203 206 205 187 169 176 174 164 180 169 175 200 216 131 197 234 236 264 267 254 251 246 237 223 217 223 235 250 274 283 279 292 301 311 316
263 265 263 261 258 250 248 240 227 216 215 206 177 185 197 212 230 205 191 166 203 210 185 176 156 171 177 171 180 220 189 127 225 239 238 251 262 272 252 239 226 210 209 210 220 236 256 274 276 276 284 300 304 311
263 262 261 259 254 246 242 238 229 216 209 207 187 215 219 220 228 211 218 222 229 218 168 169 185 176 177 202 186 177 171 232 216 230 225 264 301 264 230 222 217 216 214 219 229 240 262 272 272 274 279 292 294 307
264 264 257 255 252 246 241 237 230 223 209 208 213 235 224 214 235 218 208 223 219 192 170 185 194 227 209 194 175 199 191 222 227 209 219 301 271 257 244 231 226 221 221 225 232 245 264 268 265 269 278 284 298 302
260 259 259 256 251 245 239 234 230 216 209 207 227 229 233 239 248 228 222 218 201 167 190 182 252 220 170 213 216 203 214 223 231 228 252 276 253 259 261 243 228 219 222 230 235 249 265 270 256 267 274 282 292 298
254 258 258 255 251 240 237 231 222 199 217 214 218 223 223 237 239 231 224 221 197 198 196 214 190 187 237 215 227 226 232 246 250 264 273 271 259 270 257 241 222 223 231 236 241 253 259 258 249 262 268 274 288 293
252 256 253 246 241 224 216 212 212 210 208 214 226 226 226 237 241 235 237 237 233 221 207 204 231 214 236 242 278 278 261 260 258 289 278 273 266 262 254 232 223 229 234 237 240 252 258 263 259 261 266 269 275 283
250 247 247 246 231 221 201 215 200 214 189 218 222 224 223 233 238 234 234 231 225 210 227 215 234 241 239 246 249 251 263 277 281 277 270 264 260 249 240 228 227 237 236 238 242 244 247 245 254 253 256 264 261 274
247 243 238 234 230 222 213 192 200 226 189 196 229 207 214 225 218 213 218 227 203 222 232 233 240 243 244 251 255 259 269 270 258 256 272 291 283 246 238 232 235 233 237 237 238 243 243 245 262 250 252 259 251 266
239 235 230 222 221 210 211 192 180 187 190 201 186 197 195 197 205 214 220 208 230 232 234 242 245 250 255 249 252 256 260 259 262 261 278 283 265 247 239 232 227 233 242 243 243 247 248 242 250 249 251 251 250 255
226 205 188 192 189 193 197 173 161 186 185 191 157 168 202 197 204 189 211 229 241 242 241 244 247 250 251 258 259 259 259 253 260 263 272 274 260 254 253 246 234 240 245 242 241 243 244 234 239 242 244 240 240 254
191 180 171 173 170 180 144 174 180 173 168 175 182 177 183 195 168 195 243 245 248 255 247 248 250 249 253 252 250 252 254 258 258 258 269 270 255 243 246 238 240 248 244 242 236 239 231 229 236 238 233 228 234 244
155 168 161 155 162 131 139 159 161 180 165 177 160 177 172 172 196 231 242 264 263 257 256 256 248 248 242 247 252 253 256 254 249 256 266 258 254 245 242 238 240 239 228 227 228 231 226 223 230 230 224 222 230 244
138 174 167 140 147 156 166 160 176 172 153 166 203 147 146 165 198 241 237 262 269 274 269 265 268 257 250 252 255 262 267 262 246 255 263 256 251 241 237 231 225 222 222 228 240 231 219 221 225 227 221 224 232 246
142 173 182 172 160 145 144 157 156 149 175 182 164 152 155 194 231 246 258 265 271 275 285 280 285 277 275 275 271 267 267 262 263 259 263 257 252 242 238 235 236 245 234 229 234 224 219 220 225 227 225 228 237 245
151 175 164 165 154 167 147 152 163 189 180 166 149 180 183 195 230 226 238 248 262 283 308 302 292 290 297 292 269 262 248 235 234 234 238 237 221 220 226 233 232 223 225 228 233 219 216 221 226 224 223 228 236 240
122 145 131 103 122 150 178 175 195 196 167 168 168 177 208 210 205 224 250 281 293 294 299 308 308 306 299 276 244 225 237 236 206 202 219 212 214 214 221 224 221 228 228 212 213 209 212 220 226 225 225 229 236 243
145 156 104 102 112 166 151 161 157 147 171 179 182 163 178 200 211 236 264 277 279 280 287 278 260 287 299 309 147 162 183 202 218 231 230 232 238 237 226 216 227 228 214 210 209 205 208 224 233 223 227 235 238 241
126 101 78 74 104 87 129 129 138 143 147 166 182 192 183 184 225 246 242 250 247 252 278 126 135 153 154 157 178 197 200 208 215 221 222 225 223 228 225 244 236 212 211 210 210 216 225 221 217 223 232 235 239 243
76 94 116 111 119 146 129 127 122 131 144 173 158 162 161 179 225 237 234 220 210 208 195 197 196 200 196 205 215 221 220 222 225 231 237 241 244 219 208 206 202 207 210 218 220 212 213 220 227 231 235 241 244 248
89 91 98 108 136 162 165 150 137 128 161 160 163 173 181 203 215 232 226 216 218 210 192 201 210 215 224 222 228 242 231 233 220 228 223 217 206 205 211 211 208 210 213 224 229 221 223 227 232 236 239 242 246 250